KCLI

Details ICAO KCLI
Name Clintonville Muni
Region United States
Timezone America/Chicago (UTC-5.0)
Plans Departing 2
Arriving 5
Stats Elevation 822 ft / 251 m (AMSL)
Location 44.613008° -88.730242°
Runways 3
Magnetic Variation 3.522° W
Sunrise 2018-05-26 10:18:12 UTC / 2018-05-26 05:18:12 Local
Sunset 2018-05-27 01:28:40 UTC / 2018-05-26 20:28:40 Local
Advertisement - Login to hide

Runways

ID Width Length Bearing (true) Bearing (mag) Surface Threshold Offset Overrun Length
04 100 ft / 30 m 3,297 ft / 1,005 m 42.58° 46.10° Asphalt 0 ft / 0 m 0 ft / 0 m
09 170 ft / 52 m 1,995 ft / 608 m 88.28° 91.80° Grass 0 ft / 0 m 0 ft / 0 m
14 75 ft / 23 m 4,597 ft / 1,401 m 137.06° 140.58° Asphalt 0 ft / 0 m 0 ft / 0 m
22 100 ft / 30 m 3,297 ft / 1,005 m 222.59° 226.11° Asphalt 0 ft / 0 m 0 ft / 0 m
27 170 ft / 52 m 1,995 ft / 608 m 268.28° 271.80° Grass 0 ft / 0 m 0 ft / 0 m
32 75 ft / 23 m 4,597 ft / 1,401 m 317.07° 320.59° Asphalt 0 ft / 0 m 0 ft / 0 m

Map

Weather


0- 5 10 15 20 25 30 35+ Temperature / ° C

Clouds and Precipitation
Forecast for 2018-05-27 06:00 UTC. Updated 24 minutes ago

Ground ~20,000 ft ~40,000 ft Winds

METAR

KCLI 270455Z AUTO 00000KT 10SM CLR 20/18 A2976 RMK AO2 T01960178

TAF

Not found

Frequencies

Recorded 120.67 MHz AWOS 3
Approach 126.30 MHz GREEN BAY APP/DEP
Unicom 122.80 MHz CTAF/UNICOM
Warning: Do not use this data for real-world aviation or navigation. No guarantee of current accuracy is given.